Погода в Рокебрюне-Капе-Мартене

Франция     43°45′51″N   7°28′52″E
темп.,
°C
ветер,
м/с
пор.,
м/с
влажн.,
%
обл.,
%
осадки,
мм/ч
давл.,
гПа
погр.,
м
17 июня, чт
чт1723:00+23св228185 0.0 1015105
02:00+23всв1281100 0.0 1016226
05:00+23ссв2274100 0.0 101580
08:00+23юз11726 0.0 1016183
11:00+23в668068 0.0 1016319
14:00+23в897715 0.0 1016394
17:00+24в68735 0.0 1015318
20:00+24всв566773 0.0 1014149
18 июня, пт
пт1823:00+25св236694 0.0 101644
02:00+24всв22655 0.0 101575
05:00+23св335686 0.0 1015120
08:00+23в556129 0.0 1015254
11:00+23в87773 0.0 1016394
14:00+23в7781100 0.0 1017359
17:00+22в558184 0.0 1017299
20:00+22вюв21805 0.0 1016187
19 июня, сб
сб1923:00+23ю007838 0.0 1017188
02:00+23зюз2275100 0.0 1017243
05:00+23сз116559 0.0 101659
08:00+23юв327390 0.0 1017292
11:00+22ююв2179100 0.0 1017251
14:00+22вюв55847 0.0 1015272
17:00+23в33805 0.0 1015274
20:00+23в228313 0.0 1014195
20 июня, вс
вс2023:00+23ссв118189 0.0 1014102
02:00+23ююз3482100 0.0 1016271
05:00+23в4484100 0.0 1013336
08:00+23вюв2379100 0.0 1014317
11:00+23ююв327533 0.0 1012234
14:00+22вюв4387100 0.1 1012248
17:00+23в228241 0.0 1011202
20:00+24вюв337712 0.0 1010210
21 июня, пн
пн2123:00+24ссз337799 0.0 1011112
02:00+24зсз22715 0.0 100926
05:00+23зсз336612 0.0 1009153
08:00+23ю22630 0.0 1009254
11:00+23юз44720 0.0 1010285
14:00+24юз66650 0.0 1010354
17:00+24юз56690 0.0 1010377
20:00+24юз55700 0.0 1010317